Location: Waco, TX
(31.5480°N, 97.1670°W)
Time: 23:18:58
(UTC-05:00)

ISS - Pass Details

Date: 17 September 2018
Orbit: 403 x 409 km, 51.6° (Epoch: 24 September)

Event Time Altitude Azimuth Distance (km) Brightness Sun altitude
Rises 05:34:55 0° 325° (NW) 2,321 - -21.6°
Reaches altitude 10° 05:37:12 10° 338° (NNW) 1,458 - -21.1°
Exits shadow 05:38:11 16° 349° (N) 1,135 -1.5 -20.9°
Maximum altitude 05:40:04 27° 39° (NE) 801 -1.8 -20.5°
Drops below altitude 10° 05:42:54 10° 100° (E) 1,450 -0.1 -19.9°
Sets 05:45:10 0° 113° (ESE) 2,305 0.8 -19.5°
